Location: Les Jeannots
(43.2262°N, 5.5774°E)
Time: 08:14:11
(UTC+00:00)

Cosmos 2218 Rocket - Pass Details

Date: 05 July 2020
Orbit: 955 x 1007 km, 82.9° (Epoch: 04 August)

Event Time Altitude Azimuth Distance (km) Brightness Sun altitude
Exits shadow 22:50:53 42° 138° (SE) 1,384 4.4 -23.0°
Maximum altitude 22:52:35 54° 92° (E) 1,197 4.3 -23.1°
Drops below altitude 10° 22:58:43 10° 17° (NNE) 2,756 7.2 -23.3°
Sets 23:01:16 0° 13° (NNE) 3,701 8.1 -23.4°
